Tracking 29487 objects as of 12-Sep-2024
HD Live streaming from Space Station
objects crossing your sky now

FENGYUN 1C DEB

Track FENGYUN 1C DEB now!
10-day predictions


NORAD ID: 30322
Int'l Code: 1999-025AAK
Perigee: 794.4 km
Apogee: 987.5 km
Inclination: 98.4 °
Period: 102.6 minutes
Semi major axis: 7261 km
RCS: 0.0387 m2 (small)
Launch date: May 10, 1999
Source: People's Republic of China (PRC)
Launch site: Taiyaun Space Center, China (TSC)

Note: This is SATELLITE DEBRIS
Your satellite tracking list
Your tracking list is empty




NASA's NSSDC Master Catalog

Two Line Element Set (TLE):
1 30322U 99025AAK 24255.59070746  .00005126  00000-0  30815-2 0  9994
2 30322  98.4362 140.0075 0133009 107.1872 254.3907 14.02889690899107
Source of the keplerian elements: AFSPC